Regional Weather Roundup
Issued by NWS

Home | Current Version | Previous Version | Graphics & Text | Print | Product List | Glossary On
Versions: 1 2 3 4 5 6 7 8 9 10 11 12 13 14 15 16 17 18 19 20 21 22 23 24 25 26 27 28 29 30 31 32 33 34 35 36 37 38 39 40 41 42 43 44 45 46 47 48 49 50
000
ASUS43 KLOT 172006
RWRIL

ILLINOIS REGIONAL WEATHER ROUNDUP
NATIONAL WEATHER SERVICE CHICAGO/ROMEOVILLE IL
300 PM CDT WED SEP 17 2014

NOTE: "FAIR" INDICATES FEW OR NO CLOUDS BELOW 12,000 FEET WITH NO
SIGNIFICANT WEATHER AND/OR OBSTRUCTIONS TO VISIBILITY.

* THESE STATIONS ARE NOT UNDER NWS QUALITY CONTROL. THEY ALSO MAY NOT
  REPORT WEATHER SUCH AS PRECIPITATION OR FOG.

ILZ001-002-007-009-015-016-024-172100-
NORTHWEST ILLINOIS

CITY           SKY/WX    TMP DP  RH WIND       PRES   REMARKS
MOLINE         SUNNY     69  51  52 E3        29.98F
STERLING*      MOSUNNY   72  52  49 CALM      29.98F
SAVANNA*       SUNNY     70  49  47 W6        29.98F
$$

ILZ003-004-008-010-011-017-018-172100-
NORTH CENTRAL ILLINOIS

CITY           SKY/WX    TMP DP  RH WIND       PRES   REMARKS
ROCKFORD       MOSUNNY   70  49  47 NW7       30.00F
FREEPORT*      PTSUNNY   68  53  60 W6        30.01S
ROCHELLE*      SUNNY     70  48  45 CALM      29.99F
DE KALB*       SUNNY     67  48  50 SW8       30.00S
PERU*          SUNNY     68  51  54 SW8       30.00F
$$

ILZ005-006-012>014-019>023-172100-
NORTHEAST ILLINOIS

CITY           SKY/WX    TMP DP  RH WIND       PRES   REMARKS
CHICAGO-OHARE  MOSUNNY   68  44  42 SW8       29.99F
CHICAGO-MIDWAY MOSUNNY   70  47  43 NW7       29.99F
AURORA         SUNNY     70  46  42 VRB5      29.99F
LANSING*       MOSUNNY   68  47  45 W6        29.99F
JOLIET*        MOSUNNY   70  44  39 SW3       30.00F
WAUKEGAN       MOSUNNY   66  49  54 E8        29.99S
DUPAGE AIRPORT SUNNY     70  47  43 VRB3      29.99F
KANKAKEE*      SUNNY     71  51  49 NW5       30.00F
WHEELING       SUNNY     69  45  41 SW7       30.01S
MORRIS*        SUNNY     70  49  46 S3        29.98F
ROMEOVILLE*    SUNNY     68  45  43 CALM      29.99F
NORTHERLY ISL    N/A     64  50  60 E6          N/A
$$

LMZ740>746-172100-
SOUTHERN LAKE MICHIGAN

STATION/POSITION SKY/WX   TEMP    WIND        PRES    VSBY  WAVE
                          AIR SEA DIR/SP/G                  HT/PER
                          (F)     (DEG/KT/KT) (MB)    (MI)  (FT/S)
SOUTHERN BUOY              62 65  220/  4/  4 1016.4F         1/ 4
WAUKEGAN HARBOR            66     140/  9/ 10   N/A
HARRISON CRIB              62      90/  9/ 10   N/A
BURNHAM HARBOR             65      70/  6/  8   N/A
CALUMET HARBOR             64      60/  7/  9 1014.4F
MICHIGAN CITY              64     340/  7/  8   N/A
MICHIGAN CITY 6N           63 66   30/  4/  6   N/A           1
ST. JOSEPH                 62 67  280/  6/  8   N/A           1/ 2
$$

ILZ025>027-034>036-040-047-049-050-058-095>099-172100-
WEST-CENTRAL ILLINOIS

CITY           SKY/WX    TMP DP  RH WIND       PRES   REMARKS
QUINCY         CLOUDY    67  57  70 SE8       29.95F
GALESBURG*     CLOUDY    70  55  58 S5        29.98F
MACOMB*        CLOUDY    66  54  65 S6        30.00F
JACKSONVILLE*  PTSUNNY   67  56  68 SE6       29.98F
PITTSFIELD*    MOSUNNY   69  57  67 E6        29.97F
$$

ILZ028>032-037-038-041>044-048-051>054-059>061-172100-
CENTRAL ILLINOIS

CITY           SKY/WX    TMP DP  RH WIND       PRES   REMARKS
PONTIAC        MOSUNNY   72  50  46 W3        29.99F
DECATUR        CLOUDY    67  51  56 SW7       30.00F
PEORIA         CLOUDY    67  51  56 SW6       29.99F
LACON*         PTSUNNY   66  51  57 W6        29.98F
LINCOLN*       CLOUDY    69  50  50 SE3       29.97F
SPRINGFIELD    PTSUNNY   67  52  58 SE8       29.98F
TAYLORVILLE    CLOUDY    61  50  67 SE6       29.99F
$$

ILZ033-039-045-046-055>057-062-063-172100-
EAST-CENTRAL ILLINOIS

CITY           SKY/WX    TMP DP  RH WIND       PRES   REMARKS
CHAMPAIGN      PTSUNNY   68  50  52 S6        30.00F
DANVILLE*      CLOUDY    67  49  53 CALM      29.98F
RANTOUL*       SUNNY     71  46  41 CALM      30.00F
MATTOON        PTSUNNY   65  51  60 SE6       29.99F
PARIS*         CLOUDY    67  51  56 SW6       30.02S
$$

ILZ079-100>102-172100-
SOUTHWEST ILLINOIS

CITY           SKY/WX    TMP DP  RH WIND       PRES   REMARKS
ALTON          CLOUDY    63  57  82 E9        29.98F
BELLEVILLE     CLOUDY    65  57  74 NE8       29.97S
CAHOKIA*       PTSUNNY   68  57  68 SE6       29.97S
SPARTA*        MOSUNNY   70  58  64 E3        29.97S
$$

ILZ064>066-069>071-074>076-080>082-084>086-088>090-092>094-172100-
SOUTH-CENTRAL ILLINOIS

CITY           SKY/WX    TMP DP  RH WIND       PRES   REMARKS
CARBONDALE     MOSUNNY   70  55  59 VRB7      29.95F
CAIRO*         CLOUDY    69  57  65 E5        29.96F
EFFINGHAM*     CLOUDY    65  49  56 S3        30.00F
MARION         PTSUNNY   72  55  56 E7        29.97F
MT. VERNON     CLOUDY    63  54  72 NE5       29.99F
CENTRALIA*     LGT RAIN  61  54  77 E3        29.98F
SALEM*         PTSUNNY   65  56  72 SE6       29.98F
METROPOLIS*    CLOUDY    69  55  62 E6        29.97F
$$

ILZ067-068-072-073-078-083-087-091-172100-
SOUTHEAST ILLINOIS

CITY           SKY/WX    TMP DP  RH WIND       PRES   REMARKS
LAWRENCEVILLE  PTSUNNY   68  51  54 E5        30.00F
FLORA*         LGT RAIN  65  53  63 E5        29.99F
FAIRFIELD*     CLOUDY   N/A N/A N/A CALM      29.98F
HARRISBURG*    MOSUNNY   71  52  50 SE5       29.98F
ROBINSON*      PTSUNNY   68  54  60 E3        30.00F
CARMI*         PTSUNNY   73  54  52 E5        29.97F
$$

ABBREVIATIONS USED IN REMARKS
   TC - TEMPERATURE IN CELSIUS
  WCI - WIND CHILL INDEX
   HX - HEAT INDEX
  VSB - VISIBILITY
$$




USA.gov is the U.S. government's official web portal to all federal, state and local government web resources and services.